Location: *
(46.3500°N, 10.9000°E)
Time: 00:26:40
(UTC+00:00)

Vanguard 2 - Pass Details

Date: 20 April 2021
Orbit: 552 x 2938 km, 32.9° (Epoch: 12 May)

Event Time Altitude Azimuth Distance (km) Brightness Sun altitude
Rises 10:07:23 0° 212° (SSW) 6,779 12.6 52.5°
Reaches altitude 10° 10:13:09 10° 202° (SSW) 5,681 12.5 52.9°
Maximum altitude 10:25:35 26° 154° (SSE) 3,966 12.5 53.8°
Drops below altitude 10° 10:35:21 10° 105° (ESE) 4,417 11.8 54.3°
Sets 10:39:05 0° 93° (E) 5,065 11.9 54.5°
